Location: Stamford Observatory
(41.1241°N, 73.5498°W)
Time: 14:56:54
(UTC-04:00)

IRS-P3 - Visible Passes

Search period start: 27 August 2014 00:00
Search period end: 06 September 2014 00:00
Orbit: 814 x 821 km, 98.6° (Epoch: 25 August)

Date Brightness Start Highest point End Pass type
(mag) Time Alt. Az. Time Alt. Az. Time Alt. Az.
27 Aug 4.9 02:43:06 10° NNE 02:46:54 48° NNE 02:46:54 48° NNE visible
27 Aug 6.1 04:25:21 10° NNW 04:27:44 13° WNW 04:28:12 13° WNW visible
28 Aug 5.4 02:21:46 10° NNE 02:25:07 37° NE 02:25:07 37° NE visible
28 Aug 5.7 04:02:51 10° NNW 04:06:25 20° WNW 04:06:25 20° WNW visible
29 Aug 6.0 02:00:37 10° NNE 02:03:20 26° NE 02:03:20 26° NE visible
29 Aug 5.3 03:40:51 10° N 03:44:38 29° NW 03:44:38 29° NW visible
30 Aug 6.4 01:39:45 10° NE 01:41:33 17° ENE 01:41:33 17° ENE visible
30 Aug 5.1 03:19:05 10° N 03:22:51 38° NNW 03:22:51 38° NNW visible
31 Aug 6.8 01:19:27 10° ENE 01:19:46 11° ENE 01:19:46 11° ENE visible
31 Aug 5.0 02:57:29 10° N 03:01:04 43° N 03:01:04 43° N visible
01 Sep 5.4 02:36:03 10° NNE 02:39:17 38° NNE 02:39:17 38° NNE visible
01 Sep 6.0 04:17:50 10° NNW 04:20:35 15° WNW 04:20:35 15° WNW visible
02 Sep 5.8 02:14:46 10° NNE 02:17:30 29° NE 02:17:30 29° NE visible
02 Sep 5.7 03:55:33 10° NNW 03:58:48 22° NW 03:58:48 22° NW visible
03 Sep 6.3 01:53:41 10° NE 01:55:43 20° NE 01:55:43 20° NE visible
03 Sep 5.4 03:33:38 10° N 03:37:01 29° NW 03:37:01 29° NW visible
04 Sep 6.7 01:32:57 10° NE 01:33:55 14° NE 01:33:55 14° NE visible
04 Sep 5.3 03:11:56 10° N 03:15:14 35° NNW 03:15:14 35° NNW visible
05 Sep 5.4 02:50:23 10° NNE 02:53:26 36° N 02:53:26 36° N visible
05 Sep 6.2 04:33:22 10° NW 04:34:44 11° NW 04:34:44 11° NW visible
